RH
25 28 33 27 28 28 29 31 32 25 21 22 25 23 18 18 20 20 17 16 15 13 11 12 11 10 10 12 15 48 67 86 96 98 99 99 93 88 87 82 78 93 96 92
40 38 27 23 25 27 28 30 29 23 21 24 23 22 17 16 20 17 17 16 15 14 12 12 13 11 12 12 15 40 64 87 91 93 89 93 94 94 85 83 88 86 92 88
45 33 28 29 30 32 29 30 30 31 24 22 23 25 22 19 18 17 16 17 17 19 16 13 12 14 12 15 16 40 66 81 92 91 95 97 100 99 94 95 89 82 82 86
29 22 25 27 31 31 37 26 26 28 34 40 24 42 29 24 25 23 22 28 63 67 64 58 56 60 64 58 26 34 69 85 90 92 96 95 94 96 96 100 88 81 83 88
40 33 31 32 30 25 30 28 32 33 39 38 35 48 30 28 28 26 28 60 67 69 68 70 68 68 71 71 69 49 79 87 90 93 92 94 94 94 92 94 87 85 81 85
35 27 25 28 23 24 25 29 32 33 40 52 37 46 39 34 48 80 70 73 73 77 77 76 72 80 86 90 84 81 84 89 93 89 90 87 92 94 94 94 89 87 83 81
35 30 29 29 35 27 28 42 66 70 75 53 32 45 38 40 78 80 83 71 75 77 83 82 83 84 83 87 98 86 88 91 95 90 90 86 87 89 88 91 91 95 97 96
73 66 40 36 38 43 36 36 56 83 77 65 46 66 62 74 70 73 75 80 73 80 79 80 77 79 82 88 96 94 92 89 94 93 92 89 87 83 80 84 90 92 100 100
78 67 38 34 37 44 49 47 41 59 59 79 64 48 58 70 74 79 80 84 83 78 80 79 76 80 84 93 98 100 94 96 93 90 92 89 84 80 80 81 80 82 85 97
62 70 42 40 31 29 47 46 69 86 86 78 65 55 80 86 86 85 88 87 78 75 78 77 76 80 86 93 98 100 100 95 100 99 91 86 82 76 73 73 80 84 89 87
60 70 58 45 40 55 43 68 78 79 72 75 76 77 89 86 87 88 84 75 77 78 79 78 78 80 85 91 96 99 100 100 70 80 98 87 79 76 76 77 78 80 83 79
62 69 88 56 39 36 41 52 91 99 91 84 87 83 82 91 87 86 80 75 74 76 78 82 80 82 85 89 93 98 100 100 95 68 96 89 79 76 76 83 84 83 81 83
58 73 74 45 38 46 56 50 78 95 97 92 95 85 89 88 94 95 84 80 78 78 79 81 84 85 87 91 94 97 100 100 100 100 94 95 96 85 85 85 86 87 86 92
64 78 65 67 55 63 72 63 60 77 95 90 81 87 96 97 94 88 79 76 77 78 81 82 86 87 90 93 96 98 100 100 100 100 98 94 94 92 95 97 97 99 99 100
76 92 83 74 65 60 61 58 55 58 62 98 96 100 100 99 92 82 74 74 78 83 84 86 89 90 91 94 97 98 100 100 100 100 100 100 100 99 96 95 96 99 99 99
89 91 87 69 54 50 61 55 54 55 78 87 96 100 92 85 77 84 84 82 85 86 86 86 88 88 93 97 98 99 100 100 100 100 100 100 100 100 100 100 100 100 100 100
92 90 84 76 63 63 76 59 48 92 99 96 99 100 89 91 92 94 89 87 92 94 91 94 95 93 97 99 100 100 100 100 100 100 100 100 100 100 100 100 100 100 100 100
71 84 88 80 74 87 90 70 70 92 100 99 96 89 86 91 91 90 88 89 93 95 96 96 96 97 99 100 100 100 100 100 99 100 100 100 100 100 100 99 100 100 100 100
54 73 88 89 85 73 92 100 100 98 97 90 81 83 87 86 78 92 88 90 95 98 98 98 100 100 100 100 100 100 99 100 100 100 100 99 96 99 100 97 97 99 100 100
52 55 77 96 96 96 98 92 73 90 97 80 78 84 84 90 95 95 93 93 94 98 99 98 100 100 100 100 99 98 98 98 99 100 100 100 100 100 96 96 100 100 100 100
81 82 90 89 95 94 92 82 66 80 99 84 80 82 84 89 93 98 98 97 98 99 98 97 98 99 100 100 98 98 98 98 98 98 98 99 98 100 100 100 99 95 98 99
83 95 96 96 96 94 87 77 90 98 90 82 82 82 91 96 97 97 97 96 95 95 98 97 98 100 100 100 96 98 98 97 97 98 97 97 98 98 98 99 98 97 99 97
97 99 97 97 96 97 95 97 97 87 88 93 87 91 91 94 97 96 97 96 95 97 98 96 97 98 100 100 99 98 98 97 97 96 96 97 97 97 97 96 97 97 96 97
94 82 96 82 97 94 92 92 92 88 92 95 90 88 93 96 96 97 96 95 94 97 98 96 95 96 99 99 98 99 97 96 96 96 97 97 97 96 96 96 96 96 97 97
88 81 86 93 94 91 90 94 91 92 91 91 94 96 97 92 96 95 93 92 95 96 97 98 97 98 100 100 99 97 97 97 96 90 92 96 96 97 98 99 98 98 96 95
95 98 95 95 93 90 95 94 97 95 95 93 89 95 97 92 95 94 94 97 96 97 98 98 98 98 99 99 96 94 91 92 99 100 97 83 77 90 97 99 100 99 99 99
Wind_Speed
3 3 8 9 8 5 5 11 14 14 10 6 12 13 18 9 9 11 13 11 13 15 15 19 24 23 24 26 29 35 40 39 37 34 33 31 35 38 33 31 26 27 27 26
1 8 11 9 8 8 10 15 17 19 17 9 11 18 18 15 9 15 17 16 17 17 16 16 18 25 22 26 28 32 42 42 44 40 40 27 31 33 35 30 26 25 26 25
8 9 7 10 12 11 15 13 15 16 6 4 7 19 15 15 14 13 15 14 15 14 19 20 15 16 24 26 26 30 40 45 43 38 32 22 25 21 25 28 28 26 26 26
6 14 13 11 10 12 16 11 15 12 5 12 6 13 26 19 15 14 14 9 6 10 11 9 7 6 11 15 20 30 40 42 41 40 37 37 31 23 23 30 31 28 26 26
6 10 9 7 7 6 14 9 11 6 5 5 18 2 26 10 20 20 13 4 6 7 11 14 13 15 18 22 15 31 36 36 38 42 39 37 28 25 27 32 32 29 26 25
7 4 4 7 11 6 7 4 3 1 2 9 25 5 21 6 4 7 9 5 7 10 13 12 16 17 20 25 18 16 32 35 37 39 39 39 34 31 30 30 31 30 29 28
6 5 5 6 7 6 5 4 4 3 2 13 7 6 16 9 3 7 14 11 11 8 17 14 17 17 22 25 26 8 24 25 34 35 34 39 39 36 34 33 32 29 25 27
4 6 6 10 2 4 8 8 6 4 3 4 6 6 4 6 6 5 13 18 17 16 16 17 15 15 20 25 27 14 22 25 26 28 31 33 33 33 31 33 32 32 26 24
4 4 16 7 7 5 7 4 4 6 6 6 5 9 1 11 12 13 14 10 12 16 12 12 16 18 21 24 27 25 14 20 31 32 28 31 33 32 31 30 29 30 28 27
2 7 2 7 10 3 5 6 3 3 4 7 5 7 1 12 11 14 7 7 12 13 14 15 15 18 23 23 25 29 19 12 7 11 30 33 35 32 28 28 29 29 26 23
1 1 4 5 1 5 8 4 5 4 5 5 6 3 3 3 4 2 5 10 12 12 13 14 14 20 23 24 27 25 27 11 8 11 15 28 29 28 27 29 29 26 22 19
1 1 4 7 15 15 12 4 0 5 2 3 2 3 6 11 13 12 9 10 12 12 13 13 14 20 24 27 28 28 27 21 7 16 19 16 23 26 27 26 24 20 18 18
0 1 4 9 5 8 5 6 2 5 5 8 4 2 9 11 10 13 10 11 12 14 15 15 15 16 20 24 27 29 29 26 16 9 23 23 23 27 24 20 20 20 20 20
3 2 5 7 10 9 12 16 13 3 5 7 9 4 8 4 5 9 9 11 13 14 16 15 16 15 21 23 24 24 27 28 22 7 20 22 23 22 22 19 16 17 18 18
5 4 4 7 9 14 17 18 18 15 13 8 9 3 6 5 8 10 9 11 13 15 17 16 15 15 19 23 25 25 25 27 24 15 21 16 26 25 23 21 18 18 17 17
2 3 2 13 11 13 15 15 15 15 13 12 9 10 10 9 9 12 12 11 13 14 14 15 15 16 17 22 24 24 24 25 25 24 22 18 23 22 22 24 22 20 19 18
6 3 1 10 7 14 14 13 15 6 7 5 2 5 10 9 11 10 9 11 12 12 13 14 14 14 20 22 23 24 23 24 26 26 26 24 23 23 21 20 23 25 21 20
7 5 3 8 9 6 8 12 19 16 11 10 8 6 9 10 11 9 10 10 11 11 12 12 12 17 21 24 25 25 25 26 25 27 26 27 27 29 26 27 24 22 22 22
14 5 3 3 4 11 6 5 4 5 7 8 6 6 10 12 12 11 9 10 10 8 9 13 17 18 22 26 26 26 28 28 26 25 26 27 29 33 28 34 26 23 27 27
10 10 5 3 4 4 4 17 15 8 5 9 8 6 4 9 2 2 7 8 10 14 14 15 18 20 24 25 27 29 28 28 28 27 24 29 28 29 32 32 28 29 31 28
4 5 13 10 3 4 13 21 12 3 3 8 9 12 11 5 6 6 5 8 12 14 16 18 21 23 24 25 27 26 26 26 25 27 31 33 34 29 30 30 31 34 32 32
5 2 4 6 3 3 20 7 6 6 8 9 10 10 12 10 9 6 7 8 11 13 16 19 20 23 25 26 26 24 24 23 24 27 32 31 33 31 31 29 29 27 28 31
4 5 2 5 3 4 8 11 12 9 10 9 10 9 9 8 5 7 7 8 12 14 15 19 20 21 26 24 25 24 22 22 25 30 29 28 31 30 28 29 26 26 27 24
8 11 3 3 5 10 9 10 12 11 11 10 10 9 7 9 8 7 7 7 11 15 16 17 20 21 22 26 27 23 22 25 26 26 26 28 30 30 30 29 27 26 22 22
4 7 6 6 8 9 10 8 9 10 11 11 11 8 8 9 8 7 8 10 14 16 17 19 19 20 21 23 25 21 20 18 22 22 23 24 26 26 28 30 26 26 23 22
5 4 3 2 5 5 6 7 9 8 9 8 10 10 9 10 9 11 9 13 15 16 17 18 19 18 21 24 25 23 19 18 17 15 17 18 19 19 20 22 26 26 25 23
Wind_Direction
221 132 227 231 215 219 255 274 275 280 267 255 275 278 284 269 272 279 282 277 264 262 267 252 251 256 262 254 231 195 193 195 185 183 179 184 187 190 195 204 209 207 208 208
323 227 235 230 230 230 247 256 269 273 265 231 274 272 273 283 259 266 270 272 274 278 270 263 245 253 255 256 239 202 194 188 189 189 190 189 194 195 201 202 201 203 206 208
220 252 266 230 253 249 247 245 259 262 275 246 284 279 288 281 274 276 276 271 275 276 272 264 250 247 251 245 240 198 191 190 187 188 178 179 176 185 195 200 195 199 207 212
238 259 242 260 244 241 262 245 257 265 320 294 168 289 289 280 273 277 286 294 15 6 357 6 27 30 5 338 267 209 193 186 183 181 178 177 180 178 197 188 190 197 205 210
252 309 310 289 254 239 267 229 237 265 277 346 276 219 280 334 297 287 287 16 43 33 22 0 9 5 352 357 323 203 187 183 178 181 182 177 178 183 181 186 188 195 206 214
233 228 212 247 273 231 295 288 351 311 148 263 271 195 277 281 306 359 339 2 44 16 35 4 354 360 356 357 360 202 183 179 179 177 179 177 179 174 171 179 186 195 203 211
297 250 261 292 293 296 216 74 315 321 327 255 283 262 259 279 87 47 20 10 356 42 33 360 360 356 357 354 342 311 185 185 181 178 176 179 181 178 179 179 183 187 194 208
340 337 15 342 6 271 263 203 215 256 239 291 337 260 273 16 14 343 43 17 353 358 21 7 352 356 353 353 343 343 197 177 182 183 176 181 181 184 186 184 184 189 187 200
338 264 332 26 347 336 324 244 220 242 280 293 240 265 351 31 34 31 22 3 327 20 12 349 358 0 355 353 348 355 212 185 179 179 180 181 185 187 189 187 189 194 199 202
314 295 320 347 334 319 356 287 299 330 245 257 245 254 355 6 9 15 25 348 357 11 1 6 358 355 359 1 354 8 31 102 102 194 180 179 184 189 188 186 190 190 188 195
17 227 325 341 328 335 343 339 321 272 224 250 281 283 224 266 249 197 6 8 10 5 3 4 356 358 1 7 8 5 11 15 80 334 182 171 176 178 182 184 182 181 185 205
171 228 283 278 277 260 240 306 256 282 345 279 218 250 23 42 11 87 43 13 10 3 4 6 3 2 6 8 4 7 2 9 4 196 246 176 171 164 168 175 176 180 184 197
189 322 327 306 331 35 14 317 258 265 257 243 246 228 57 66 47 31 15 12 12 4 8 6 6 8 7 7 6 2 359 355 355 218 193 165 156 156 160 166 181 182 186 190
86 202 204 254 288 321 294 297 295 248 277 309 284 275 93 88 75 53 19 20 17 12 13 9 8 6 6 7 6 4 1 358 6 103 128 129 140 145 144 149 154 171 184 178
138 202 235 256 287 281 273 276 274 259 266 253 282 134 86 32 40 50 23 24 18 17 18 14 6 4 5 7 5 4 8 8 13 35 85 96 133 133 134 135 142 146 156 148
196 246 236 293 292 285 294 276 266 256 259 262 245 110 110 70 44 38 25 20 22 19 16 16 10 6 9 8 5 3 8 14 20 32 48 73 109 120 125 131 136 135 133 135
174 180 23 279 305 318 293 247 234 107 21 228 70 76 114 90 60 29 27 31 26 16 16 20 13 9 9 9 13 12 9 27 34 36 41 53 71 85 99 113 128 119 116 123
193 151 161 280 296 250 323 67 100 95 58 52 84 76 92 107 93 61 36 43 33 19 17 16 14 12 19 19 24 26 27 36 39 45 48 53 62 67 74 82 73 103 114 109
201 160 231 233 253 291 275 30 329 77 74 42 56 52 140 138 117 58 46 48 44 25 17 18 22 18 26 27 28 35 33 36 39 42 46 56 67 66 61 69 56 61 80 83
169 195 185 216 272 314 46 332 322 201 81 33 43 29 126 181 87 40 37 40 47 40 28 26 31 39 35 31 41 45 34 33 32 33 49 62 62 74 82 76 68 67 70 67
161 195 220 223 246 286 358 321 308 114 63 65 59 47 54 79 68 97 63 62 52 40 34 34 40 44 36 35 45 43 38 33 41 48 58 63 69 63 73 78 83 84 73 69
169 227 207 186 175 276 351 2 55 92 88 94 85 84 84 78 78 74 71 61 57 50 38 36 45 42 39 41 49 46 40 45 57 63 66 65 72 71 71 73 74 74 79 82
56 345 52 34 90 53 17 47 44 74 87 83 89 87 94 95 82 79 79 68 67 56 46 43 46 45 41 43 53 55 48 58 62 64 60 61 72 75 78 73 70 74 75 71
351 12 87 113 69 73 69 62 53 59 73 78 87 105 97 90 70 70 71 69 66 59 50 47 47 44 40 44 49 49 55 62 65 61 60 61 61 65 68 70 75 72 68 74
344 330 18 90 110 110 61 67 79 72 71 81 73 71 82 93 79 80 76 70 68 66 57 53 51 47 42 46 51 61 63 63 63 62 63 65 67 67 67 65 65 70 73 84
352 354 6 62 350 92 80 70 76 90 91 88 96 84 68 86 86 86 80 77 75 68 61 56 52 49 48 55 57 58 63 73 72 71 71 75 79 81 79 78 76 69 74 76